Weather History for ENRO - January, 2014

Change the Weather History Date:

Sunday, January 12, 2014

  Actual Average Record
Temperature  
Mean Temperature -14 °F -  
Max Temperature -2 °F 24 °F 41 °F (2009)
Min Temperature -27 °F 16 °F -27 °F (2014)
Degree Days  
Heating Degree Days 80    
Moisture  
Dew Point -21 °F    
Average Humidity 79    
Maximum Humidity 85    
Minimum Humidity 70    
Precipitation  
Precipitation 0.00 in - - ()
Sea Level Pressure  
Sea Level Pressure 29.79 in    
Wind  
Wind Speed 2 mph ()    
Max Wind Speed 5 mph    
Max Gust Speed -    
Visibility 6.1 miles    
Events Snow    
Averages and records for this station are not official NWS values.
T = Trace of Precipitation, MM = Missing Value Source: Averaged Metar Reports

Daily Weather History Graph

Daily Weather History Graph

Search for Another Location

Airport or City:

Trip Planner

Search our weather history database for the weather conditions in past years. The results will help you decide how hot, cold, wet, or windy it might be!

Date:

Astronomy

Jan. 12, 2014 Rise Set
Actual Time 9:30 AM CET 3:15 PM CET
Civil Twilight 8:28 AM CET 4:18 PM CET
Nautical Twilight 7:27 AM CET 5:18 PM CET
Astronomical Twilight 6:32 AM CET 6:13 PM CET
Moon 12:42 PM CET (1/12) 6:01 AM CET (1/12)
Length of Visible Light 7h 49m
Length of Day
5h 45m
Waxing Gibbous, 88% of the Moon is Illuminated
Jan 12
Waxing Gibbous
Jan 16
Full
Jan 24
Last Quarter
Jan 30
New
Feb 6
First Quarter

Hourly Weather History & Observations

Time (CET) Temp. Windchill Dew Point Humidity Pressure Visibility Wind Dir Wind Speed Gust Speed Precip Events Conditions
12:20 AM -2.2 °F -12.5 °F -5.8 °F 85% 29.56 in 6.2 mi North 4.6 mph - N/A Snow Light Snow Showers
12:50 AM -5.8 °F -16.7 °F -9.4 °F 84% 29.56 in 6.2 mi NW 4.6 mph - N/A Snow Light Snow Showers
1:20 AM -11.2 °F - -14.8 °F 84% 29.56 in 6.2 mi Variable 2.3 mph - N/A Snow Light Snow Showers
1:50 AM -11.2 °F -23.0 °F -14.8 °F 84% 29.59 in 6.2 mi NNW 4.6 mph - N/A   Partly Cloudy
2:20 AM -13.0 °F - -16.6 °F 84% 29.59 in 6.2 mi Variable 1.2 mph - N/A Snow Light Snow Showers
2:50 AM -16.6 °F - -20.2 °F 84% 29.62 in 6.2 mi Variable 1.2 mph - N/A Snow Light Snow Showers
3:20 AM -16.6 °F - -22.0 °F 76% 29.62 in 6.2 mi Variable 1.2 mph - N/A   Unknown
3:50 AM -16.6 °F - -22.0 °F 76% 29.65 in 6.2 mi Variable 2.3 mph - N/A   Unknown
4:20 AM -16.6 °F - -20.2 °F 84% 29.65 in 6.2 mi Variable 1.2 mph - N/A Snow Light Snow
4:50 AM -13.0 °F - -16.6 °F 84% 29.65 in 6.2 mi Calm Calm - N/A Snow Light Snow Showers
5:20 AM -13.0 °F - -16.6 °F 84% 29.65 in 6.2 mi Variable 2.3 mph - N/A Snow Light Snow Showers
5:50 AM -13.0 °F - -16.6 °F 84% 29.68 in 6.2 mi Variable 2.3 mph - N/A Snow Light Snow
6:20 AM -11.2 °F - -14.8 °F 84% 29.68 in 6.2 mi SE 2.3 mph - N/A Snow Light Snow
6:50 AM -11.2 °F - -14.8 °F 84% 29.68 in 4.3 mi Variable 1.2 mph - N/A Snow Light Snow
7:20 AM -9.4 °F - -13.0 °F 84% 29.71 in - Variable 1.2 mph - N/A Snow Light Snow
7:50 AM -9.4 °F - -14.8 °F 77% 29.71 in 6.2 mi SW 1.2 mph - N/A Snow Light Snow
8:20 AM -13.0 °F -22.7 °F -18.4 °F 77% 29.74 in 6.2 mi WNW 3.5 mph - N/A Snow Light Snow Showers
8:50 AM -13.0 °F - -16.6 °F 84% 29.74 in 6.2 mi Variable 2.3 mph - N/A Snow Light Snow Showers
9:20 AM -14.8 °F - -20.2 °F 77% 29.77 in 6.2 mi West 2.3 mph - N/A Snow Light Snow Showers
9:50 AM -14.8 °F - -20.2 °F 77% 29.77 in 6.2 mi West 1.2 mph - N/A   Unknown
10:20 AM -16.6 °F - -22.0 °F 76% 29.80 in 6.2 mi Calm Calm - N/A   Unknown
10:50 AM -14.8 °F - -18.4 °F 84% 29.80 in 6.2 mi Variable 2.3 mph - N/A Snow Light Snow Showers
11:20 AM -14.8 °F - -20.2 °F 77% 29.83 in 6.2 mi WNW 1.2 mph - N/A Snow Light Snow
11:50 AM -13.0 °F - -16.6 °F 84% 29.83 in 6.2 mi Variable 1.2 mph - N/A Snow Light Snow Showers
12:20 PM -9.4 °F - -16.6 °F 71% 29.83 in 6.2 mi Variable 2.3 mph - N/A   Unknown
12:50 PM -11.2 °F -20.6 °F -16.6 °F 77% 29.86 in 6.2 mi Variable 3.5 mph - N/A   Partly Cloudy
1:20 PM -11.2 °F -20.6 °F -16.6 °F 77% 29.86 in 6.2 mi SSW 3.5 mph - N/A   Unknown
1:50 PM -13.0 °F -22.7 °F -20.2 °F 70% 29.86 in - WNW 3.5 mph - N/A   Clear
2:20 PM -9.4 °F - -14.8 °F 77% 29.86 in - Variable 2.3 mph - N/A   Clear
2:50 PM -11.2 °F - -16.6 °F 77% 29.89 in - Variable 1.2 mph - N/A   Clear
3:20 PM -13.0 °F -25.1 °F -18.4 °F 77% 29.89 in - SW 4.6 mph - N/A   Clear
3:50 PM -16.6 °F - -20.2 °F 84% 29.89 in - Variable 1.2 mph - N/A   Clear
4:20 PM -16.6 °F - -22.0 °F 76% 29.89 in - Variable 2.3 mph - N/A   Clear
4:50 PM -20.2 °F - -23.8 °F 83% 29.92 in - Variable 2.3 mph - N/A   Clear
5:20 PM -16.6 °F - -20.2 °F 84% 29.92 in - Variable 2.3 mph - N/A   Clear
5:50 PM -20.2 °F - -25.6 °F 76% 29.92 in - WSW 2.3 mph - N/A   Clear
6:50 PM -22.0 °F - -25.6 °F 83% 29.92 in - Variable 1.2 mph - N/A   Clear
7:20 PM -22.0 °F - -27.4 °F 76% 29.92 in - Variable 2.3 mph - N/A   Clear
7:50 PM -23.8 °F -35.0 °F -29.2 °F 76% 29.92 in - WNW 3.5 mph - N/A   Clear
8:20 PM -23.8 °F - -29.2 °F 76% 29.92 in - Variable 1.2 mph - N/A   Clear
8:50 PM -23.8 °F - -29.2 °F 76% 29.92 in - Variable 2.3 mph - N/A   Clear
9:20 PM -25.6 °F - -31.0 °F 76% 29.95 in - Variable 2.3 mph - N/A   Clear
9:50 PM -25.6 °F - -31.0 °F 76% 29.95 in - Variable 1.2 mph - N/A   Unknown
10:20 PM -27.4 °F - -32.8 °F 75% 29.95 in 6.2 mi Variable 1.2 mph - N/A   Unknown
10:50 PM -25.6 °F - -31.0 °F 76% 29.95 in 6.2 mi ESE 2.3 mph - N/A   Unknown
11:20 PM -27.4 °F - -32.8 °F 75% 29.95 in 6.2 mi Variable 1.2 mph - N/A   Unknown
11:50 PM -27.4 °F - -32.8 °F 75% 29.95 in 6.2 mi Variable 2.3 mph - N/A   Unknown